Location: Unspecified
(0.0000°N, 0.0000°E)
Time: 13:26:18
(UTC+02:00)

Haruka - Visible Passes

Search period start: 23 August 2014 00:00
Search period end: 02 September 2014 00:00
Orbit: 522 x 21256 km, 31.2° (Epoch: 21 August)

Date Brightness Start Highest point End Pass type
(mag) Time Alt. Az. Time Alt. Az. Time Alt. Az.
23 Aug 7.4 20:09:52 10° WNW 00:44:34 63° NNE 00:44:34 63° NNE visible
24 Aug 7.6 22:23:56 10° WNW 01:49:51 53° NW 01:49:51 53° NW visible
25 Aug 7.9 15:18:11 10° WSW 15:48:20 71° NNW 20:27:36 10° ENE visible
26 Aug 8.0 02:02:48 10° WNW 02:55:10 31° WNW 02:55:10 31° WNW visible
26 Aug 8.1 16:29:38 10° W 17:24:51 58° NNW 21:44:10 15° ENE visible
27 Aug 8.4 03:58:55 10° WNW 04:00:30 11° WNW 04:00:30 11° WNW visible
27 Aug 7.7 17:44:35 10° W 22:15:33 53° NNE 22:49:30 36° ENE visible
28 Aug 7.4 19:06:55 10° WNW 23:49:42 62° NNE 23:54:51 60° NE visible
29 Aug 7.4 20:49:03 10° WNW 01:00:14 66° NNW 01:00:14 66° NNW visible
30 Aug 7.8 23:54:37 10° NW 02:05:39 44° WNW 02:05:39 44° WNW visible
31 Aug 8.2 15:37:05 10° W 16:16:39 61° NNW 20:52:16 10° ENE visible
01 Sep 8.2 02:47:00 10° WNW 03:11:06 21° WNW 03:11:06 21° WNW visible
01 Sep 7.8 16:50:13 10° W 20:57:30 51° NNE 22:00:11 26° ENE visible
